Wind_Speed
12 13 12 13 9 7 9 9 12 11 12 12 11 8 9 10 13 18 17 14 20 24 21 27 32 31 32 33 36 39 41 41 44 48 49 52 56 64 62 63 69 77 81 87
15 14 11 9 10 6 8 9 11 17 15 14 14 16 10 15 20 22 25 26 27 31 22 20 35 36 38 36 38 42 45 45 45 48 49 54 55 63 65 65 70 77 86 87
21 19 16 14 11 11 10 12 10 17 17 17 21 20 16 19 12 19 27 28 25 32 35 30 37 34 41 40 41 45 49 53 55 52 53 56 58 62 69 66 73 79 88 89
22 23 23 18 16 11 12 10 13 15 15 18 18 29 26 18 12 17 20 28 28 27 26 32 37 38 37 39 42 45 48 52 57 60 58 59 59 64 71 70 78 81 88 91
30 32 29 25 25 19 12 16 16 19 20 23 20 21 28 26 18 17 18 21 22 23 28 34 35 41 43 35 39 44 45 48 52 57 57 59 63 66 68 71 79 84 91 92
35 34 28 27 26 26 25 19 18 18 25 23 24 25 29 26 25 25 24 23 26 27 28 31 33 41 39 39 50 52 51 53 57 56 60 63 66 68 69 73 78 85 91 91
45 41 37 34 31 29 31 30 23 20 22 26 27 21 30 31 29 31 33 31 28 29 31 39 36 38 41 46 50 48 55 58 62 61 64 63 67 69 70 77 80 81 91 88
43 44 41 37 36 40 37 36 39 31 32 26 30 23 31 35 37 38 36 30 35 35 39 42 42 38 45 53 49 51 56 58 60 65 62 71 75 71 73 79 82 83 90 87
48 44 43 39 35 35 40 37 39 36 32 31 30 33 30 37 38 42 44 42 38 42 44 39 41 48 54 56 56 55 61 64 66 69 70 74 77 78 79 78 84 86 89 89
49 48 46 46 44 36 38 44 45 42 35 31 31 28 34 42 45 49 49 47 48 45 47 49 47 50 61 61 60 62 67 67 71 74 76 76 78 79 83 83 83 89 87 88
59 57 56 56 48 46 47 50 51 49 39 39 39 39 34 39 46 47 51 51 48 50 47 50 51 57 65 64 68 71 74 71 74 78 80 79 78 81 83 85 86 87 83 83
65 60 66 64 53 52 47 51 56 54 41 41 44 44 47 44 46 48 53 50 51 48 52 54 55 60 58 63 65 68 70 76 81 85 80 77 83 81 84 85 85 84 82 83
66 68 67 66 59 56 53 53 57 61 57 56 47 50 58 54 55 55 55 56 53 55 51 59 65 71 65 69 72 71 72 73 82 85 79 83 83 82 81 83 87 87 80 83
71 73 73 71 65 62 58 63 63 63 63 73 65 60 64 62 59 61 61 57 56 55 60 63 73 80 71 70 71 71 72 77 84 83 87 86 79 76 78 87 87 82 79 84
76 73 76 76 74 71 68 62 65 71 75 75 72 62 68 66 62 61 61 63 60 62 65 70 79 84 78 74 74 74 74 82 90 83 82 75 73 75 79 90 82 81 80 80
81 83 80 79 78 78 75 68 73 72 72 74 67 61 69 64 67 70 66 64 64 71 72 78 89 88 76 74 78 77 82 88 79 81 77 82 81 80 89 93 91 85 75 77
88 82 84 83 85 84 78 76 82 77 76 71 67 70 71 73 71 69 67 68 76 79 83 81 81 80 79 80 78 83 82 87 82 80 83 88 90 92 96 86 87 72 70 71
90 89 88 91 90 84 76 80 86 83 79 73 73 77 77 81 76 77 82 79 83 84 85 81 79 80 78 75 82 85 86 86 88 87 81 82 96 86 81 76 71 71 68 67
99 95 95 93 94 92 86 85 88 83 81 84 87 91 88 84 83 92 82 86 87 86 82 84 81 78 84 82 91 83 83 91 76 91 101 89 92 78 66 70 69 69 65 64
99 98 98 98 93 91 89 86 84 86 89 92 95 89 86 88 88 91 88 86 85 85 84 82 82 89 89 94 84 82 104 101 107 92 70 73 74 64 63 65 69 65 63 65
105 104 106 105 104 101 99 100 97 97 98 101 100 99 100 103 102 93 95 90 92 91 94 97 95 101 98 89 92 111 110 85 76 68 68 67 61 62 64 66 63 64 65 70
110 110 107 106 106 99 102 105 105 104 106 109 107 106 108 108 104 101 103 104 107 110 101 100 101 96 95 97 111 104 82 76 69 62 62 59 60 69 65 60 60 62 66 66
117 117 114 113 112 107 107 111 113 111 114 115 115 114 113 115 117 119 121 119 112 111 100 98 106 94 95 114 106 96 84 69 70 74 64 66 67 65 64 62 64 63 67 68
121 120 120 119 110 112 118 120 118 119 121 124 124 121 124 125 124 127 123 111 101 110 114 103 96 108 112 109 95 85 80 86 84 73 71 70 68 59 61 67 64 65 68 67
124 123 121 124 119 123 126 130 131 130 129 131 133 129 125 122 118 120 120 123 117 106 107 110 119 116 118 112 97 95 86 87 84 85 80 75 64 63 66 65 64 67 68 66
138 134 135 136 134 136 137 140 140 137 137 136 136 135 135 132 124 123 118 115 117 119 117 123 123 113 105 101 107 95 91 93 92 89 80 76 70 62 65 64 66 65 65 67
Wind_Direction
214 219 228 237 236 237 246 254 229 228 212 220 241 278 295 317 322 324 318 337 360 344 348 359 355 348 349 348 349 349 347 342 337 338 340 338 335 334 337 335 339 342 345 349
247 235 248 241 260 266 297 308 289 259 248 259 269 276 287 331 330 324 322 323 337 329 322 341 354 347 343 341 342 342 340 336 334 334 335 334 333 331 335 334 334 340 343 346
251 254 244 248 241 259 287 298 302 293 294 284 286 287 292 312 306 322 318 326 328 326 325 321 333 338 338 334 333 334 336 335 335 334 333 331 333 331 331 332 331 336 344 344
248 240 244 248 243 246 254 290 302 294 303 308 299 289 298 297 307 298 303 311 315 328 336 334 328 332 332 337 333 332 330 329 332 331 332 334 331 329 333 329 328 334 340 342
261 254 246 249 238 244 238 272 292 302 292 289 295 304 290 301 300 302 299 296 302 313 323 329 326 331 327 331 334 334 333 332 333 329 329 329 329 330 328 327 328 330 335 339
258 251 249 248 255 254 253 268 284 302 302 296 292 302 286 300 300 300 298 308 301 302 311 325 325 328 321 326 331 329 331 328 328 329 328 327 327 326 328 326 326 330 337 338
252 252 248 254 260 259 261 258 274 298 309 285 287 306 288 297 292 295 298 301 307 297 308 320 317 326 329 324 323 324 327 328 329 329 329 329 329 326 328 326 325 330 337 336
243 241 245 253 263 263 271 266 262 276 302 280 276 288 290 296 300 302 300 301 301 299 305 312 319 316 320 321 321 321 322 325 331 330 327 329 331 326 326 325 323 325 336 335
239 241 244 254 266 270 273 264 259 265 288 270 281 269 281 296 301 308 304 291 293 302 305 306 315 317 325 317 317 316 319 322 323 330 325 327 329 328 326 324 324 324 333 335
250 253 252 259 265 268 270 266 263 267 281 269 270 279 294 282 294 298 305 298 293 294 299 304 307 316 321 317 317 315 317 319 323 325 323 322 327 327 325 326 325 325 332 331
259 255 256 259 259 258 276 260 267 264 286 271 259 268 294 282 290 287 301 302 298 296 304 307 305 312 318 314 315 317 315 317 321 323 322 321 325 325 323 325 323 326 329 329
257 257 253 259 258 257 273 263 267 262 273 277 283 271 282 287 292 278 290 298 294 293 296 298 299 320 315 314 316 316 315 315 321 321 316 320 324 324 322 324 322 326 328 327
259 261 257 256 259 259 269 259 264 262 269 285 278 274 276 291 297 282 288 295 290 282 286 298 308 319 313 308 308 309 311 316 317 319 312 316 322 320 321 323 322 323 327 327
260 254 257 257 259 261 263 256 258 267 271 284 286 283 277 286 287 281 283 293 295 283 287 292 306 310 312 312 306 305 306 309 314 317 309 315 318 320 319 323 319 322 324 324
251 253 256 253 260 257 266 256 264 274 279 283 285 277 273 281 282 289 296 292 296 298 290 289 302 307 310 313 306 304 303 312 318 314 312 317 318 316 315 323 321 319 322 322
252 250 257 260 258 259 266 256 276 282 280 277 269 268 270 272 283 285 288 293 293 297 296 295 303 303 307 309 309 302 302 313 318 310 309 313 317 318 316 321 320 316 320 322
253 253 256 261 260 255 255 266 274 276 271 266 270 268 268 278 285 284 281 283 291 292 300 303 302 300 302 305 303 303 305 313 315 314 311 312 313 311 317 316 315 317 320 319
252 252 255 254 257 252 263 268 271 270 264 265 270 268 269 277 279 279 282 280 289 295 296 299 298 297 300 300 302 309 309 314 316 314 309 308 311 309 315 311 313 316 317 321
254 251 256 259 254 254 264 266 265 263 259 265 271 275 274 275 273 281 289 284 288 294 297 295 297 293 298 296 305 302 306 307 309 309 310 311 307 311 308 308 311 311 315 318
249 250 254 261 260 259 259 261 261 262 264 271 274 273 269 277 274 284 284 287 289 293 292 292 294 294 297 299 301 303 307 307 309 316 307 306 305 303 305 306 309 311 312 316
254 256 258 257 260 262 262 264 263 266 266 269 272 272 272 276 279 280 284 287 289 293 292 294 295 297 298 300 303 305 311 312 305 300 303 301 301 301 303 305 308 310 311 313
255 257 257 259 262 263 263 262 262 264 266 268 269 270 273 277 280 281 285 286 289 292 295 294 297 296 298 297 301 310 312 303 300 298 304 296 299 302 300 301 309 312 313 312
256 259 258 258 264 264 262 263 265 267 267 269 271 272 274 277 280 283 285 287 290 292 293 293 295 295 293 300 306 304 305 297 293 296 297 299 299 299 296 304 305 309 308 309
256 258 259 260 262 263 264 263 264 266 268 270 271 272 274 278 281 282 285 286 286 292 293 293 288 292 297 302 304 303 299 305 293 292 293 300 302 293 293 297 301 304 308 308
254 256 257 259 260 261 262 263 266 268 268 270 273 275 276 278 280 282 284 286 288 288 286 288 292 295 294 299 297 300 302 298 297 295 298 297 295 291 293 290 295 304 307 305
257 258 260 261 261 263 264 265 266 269 270 272 273 273 274 277 281 283 286 283 283 287 287 290 293 298 294 294 301 300 299 299 297 293 291 292 295 289 291 286 291 300 301 303
Height
10703 10705 10705 10706 10707 10707 10708 10708 10707 10707 10707 10707 10707 10706 10705 10704 10703 10702 10701 10700 10697 10695 10692 10689 10686 10683 10679 10675 10671 10667 10663 10657 10652 10645 10639 10631 10623 10613 10604 10594 10583 10571 10559 10545
10700 10701 10702 10702 10703 10703 10704 10704 10705 10705 10705 10705 10705 10703 10703 10702 10700 10698 10696 10696 10694 10691 10689 10685 10683 10679 10676 10672 10667 10663 10658 10652 10646 10639 10633 10625 10617 10607 10597 10587 10575 10564 10551 10538
10694 10696 10697 10698 10698 10699 10700 10701 10702 10702 10702 10702 10702 10699 10700 10701 10699 10697 10693 10692 10691 10689 10685 10682 10679 10676 10672 10667 10663 10658 10652 10646 10640 10633 10626 10618 10610 10600 10591 10580 10568 10556 10543 10530
10690 10689 10691 10693 10694 10695 10696 10696 10697 10698 10699 10698 10698 10695 10694 10695 10695 10693 10691 10688 10685 10684 10682 10679 10674 10670 10666 10662 10657 10653 10647 10641 10634 10627 10620 10612 10603 10593 10584 10572 10559 10547 10536 10523
10683 10683 10686 10688 10688 10690 10690 10692 10694 10695 10695 10694 10692 10692 10688 10688 10690 10689 10687 10685 10683 10680 10678 10673 10669 10665 10660 10656 10651 10646 10640 10634 10628 10621 10614 10605 10596 10586 10576 10564 10552 10540 10529 10515
10675 10675 10678 10680 10682 10685 10685 10686 10688 10689 10689 10689 10687 10687 10681 10685 10684 10683 10682 10681 10678 10675 10672 10669 10665 10660 10655 10651 10647 10640 10635 10629 10622 10614 10607 10598 10589 10580 10569 10558 10545 10534 10522 10508
10664 10668 10670 10673 10676 10677 10679 10680 10681 10683 10683 10684 10682 10682 10675 10678 10679 10678 10677 10675 10672 10669 10666 10663 10659 10655 10651 10646 10640 10635 10629 10623 10616 10608 10599 10591 10582 10572 10562 10550 10538 10527 10515 10501
10654 10657 10660 10664 10668 10669 10671 10673 10672 10675 10676 10679 10677 10677 10668 10669 10671 10672 10672 10670 10666 10664 10660 10657 10654 10650 10645 10639 10633 10628 10621 10615 10608 10600 10592 10583 10574 10564 10554 10543 10531 10519 10508 10494
10639 10647 10650 10653 10656 10659 10663 10663 10663 10665 10669 10671 10670 10670 10666 10659 10660 10661 10661 10660 10658 10656 10654 10650 10647 10643 10638 10632 10626 10619 10612 10606 10599 10592 10584 10576 10566 10556 10546 10534 10523 10512 10502 10488
10632 10636 10642 10642 10646 10649 10652 10653 10654 10655 10658 10661 10662 10661 10661 10659 10651 10650 10651 10650 10648 10647 10645 10642 10639 10635 10631 10624 10616 10608 10601 10596 10590 10583 10576 10567 10557 10546 10536 10525 10515 10504 10494 10481
10618 10626 10630 10632 10635 10636 10640 10644 10642 10642 10647 10649 10651 10653 10651 10649 10647 10644 10640 10640 10639 10637 10636 10633 10630 10627 10622 10615 10610 10601 10592 10584 10580 10573 10565 10557 10547 10536 10526 10517 10506 10495 10486 10474
10601 10611 10616 10620 10621 10624 10628 10631 10630 10629 10633 10637 10641 10645 10640 10637 10636 10635 10635 10633 10631 10627 10625 10624 10621 10617 10611 10607 10601 10594 10587 10577 10570 10563 10554 10546 10538 10527 10517 10508 10497 10487 10478 10467
10588 10595 10601 10605 10610 10613 10614 10616 10616 10616 10620 10630 10629 10634 10627 10625 10624 10623 10622 10623 10621 10618 10615 10613 10611 10607 10602 10596 10590 10584 10578 10569 10561 10555 10545 10537 10527 10518 10508 10499 10489 10479 10471 10459
10572 10579 10585 10590 10593 10596 10601 10602 10602 10603 10610 10614 10620 10619 10616 10612 10611 10608 10610 10611 10609 10606 10605 10602 10597 10594 10590 10585 10581 10575 10567 10558 10551 10543 10535 10526 10517 10509 10500 10490 10480 10470 10462 10452
10557 10562 10567 10570 10574 10580 10587 10590 10591 10595 10597 10600 10604 10605 10602 10597 10595 10594 10596 10595 10595 10592 10592 10589 10586 10581 10575 10570 10566 10562 10555 10546 10539 10531 10522 10515 10507 10499 10489 10480 10469 10460 10453 10443
10540 10544 10549 10552 10558 10564 10572 10577 10579 10582 10582 10584 10584 10592 10583 10582 10585 10584 10581 10583 10581 10580 10579 10577 10573 10568 10563 10557 10552 10547 10540 10533 10525 10519 10511 10504 10497 10488 10479 10469 10460 10451 10443 10434
10521 10528 10533 10536 10540 10546 10560 10569 10564 10563 10566 10563 10570 10572 10566 10569 10571 10572 10571 10565 10567 10565 10563 10559 10556 10553 10548 10544 10538 10533 10527 10518 10512 10507 10502 10494 10485 10477 10468 10457 10450 10441 10434 10425
10504 10510 10513 10517 10521 10532 10551 10551 10545 10547 10547 10547 10549 10551 10551 10556 10555 10553 10553 10553 10549 10548 10546 10543 10539 10535 10531 10526 10522 10517 10512 10504 10499 10493 10486 10479 10471 10462 10455 10448 10439 10432 10423 10415
10486 10488 10492 10494 10504 10517 10529 10531 10526 10529 10527 10527 10530 10529 10534 10540 10538 10532 10539 10536 10534 10531 10529 10525 10522 10518 10514 10510 10505 10500 10493 10489 10483 10479 10472 10463 10456 10450 10441 10435 10428 10421 10413 10406
10462 10466 10469 10475 10486 10500 10509 10507 10507 10509 10513 10508 10507 10512 10514 10518 10517 10517 10517 10516 10516 10513 10510 10508 10504 10500 10497 10494 10488 10484 10480 10474 10469 10461 10448 10443 10442 10437 10430 10424 10417 10410 10403 10396
10437 10440 10447 10448 10461 10482 10489 10488 10484 10486 10486 10488 10490 10492 10495 10494 10495 10498 10500 10498 10496 10494 10493 10493 10490 10487 10481 10475 10470 10463 10455 10449 10447 10444 10437 10432 10429 10426 10419 10413 10405 10400 10392 10386
10412 10417 10426 10429 10436 10466 10462 10460 10460 10458 10466 10465 10467 10468 10468 10471 10473 10475 10477 10475 10475 10473 10471 10472 10472 10468 10463 10459 10453 10444 10439 10434 10431 10429 10423 10421 10417 10413 10407 10401 10395 10389 10382 10375
10390 10395 10401 10409 10420 10431 10436 10433 10432 10435 10439 10439 10440 10445 10446 10445 10448 10449 10452 10454 10451 10453 10451 10450 10449 10445 10444 10439 10428 10423 10424 10419 10416 10416 10411 10408 10404 10401 10396 10390 10384 10379 10371 10364
10368 10374 10380 10386 10404 10397 10398 10400 10404 10405 10409 10410 10411 10420 10423 10421 10422 10421 10423 10425 10428 10429 10427 10424 10424 10423 10420 10419 10415 10407 10405 10403 10399 10398 10395 10390 10388 10387 10382 10378 10373 10368 10360 10353
10344 10347 10359 10361 10375 10368 10367 10367 10368 10374 10383 10382 10384 10390 10394 10396 10395 10393 10397 10400 10405 10405 10403 10403 10401 10399 10397 10395 10391 10385 10386 10387 10384 10381 10378 10375 10373 10372 10368 10364 10359 10356 10349 10342
10324 10327 10326 10331 10335 10334 10342 10339 10339 10341 10345 10348 10353 10358 10363 10368 10371 10374 10376 10375 10375 10380 10379 10376 10375 10374 10370 10369 10366 10364 10363 10363 10360 10357 10357 10357 10356 10354 10352 10349 10346 10343 10338 10331